User: anonymous   Login
Location: Unspecified
(0.0000°N, 0.0000°E)
Time: 18:59:42
(UTC+00:00)
Language:

Himawari - Orbit

View from above orbital plane
View from above orbital plane
View from above satellite
View from above satellite

Ground track
Ground track

The orbit data is extracted from the following two-line orbital elements,

1 10143U 77065A   19341.53129984  .00000059  00000-0  00000+0 0  9996
2 10143  11.9226 316.8927 0014079 180.9920  14.6704  0.99246683 97553
Epoch (UTC): 07 December 2019 12:45:04
Eccentricity: 0.0014079
inclination: 11.9226°
perigee height: 36016 km
apogee height: 36136 km
right ascension of ascending node: 316.8927°
argument of perigee: 180.9920°
revolutions per day: 0.99246683
mean anomaly at epoch: 14.6704°
orbit number at epoch: 9755

The dashed part of the orbit path shows where the satellite is in the earth's shadow,  

DLR